Regional Weather Roundup
Issued by NWS

Home | Current Version | Previous Version | Graphics & Text | Print | Product List | Glossary On
Versions: 1 2 3 4 5 6 7 8 9 10 11 12 13 14 15 16 17 18 19 20 21 22 23 24 25 26 27 28 29 30 31 32 33 34 35 36 37 38 39 40 41 42 43 44 45 46 47 48 49 50
000
ASUS43 KMKX 211121
RWRWI

WISCONSIN REGIONAL WEATHER ROUNDUP
NATIONAL WEATHER SERVICE MILWAUKEE/SULLIVAN WI
600 AM CDT THU AUG 21 2014

NOTE: "FAIR" INDICATES FEW OR NO CLOUDS BELOW 12,000 FEET WITH NO
SIGNIFICANT WEATHER AND/OR OBSTRUCTIONS TO VISIBILITY.

WIZ001-002-006>008-014>016-023>028-211200-
NORTHWEST WISCONSIN

CITY           SKY/WX    TMP DP  RH WIND       PRES   REMARKS
SUPERIOR ARPT  FOG       59  59 100 NE6       29.90S VSB 1/2
ASHLAND        FOG       57  56  96 E3        29.93F VSB 1/4
HAYWARD        CLOUDY    61  60  97 CALM      29.90S
SIREN          CLOUDY    65  62  88 E7        29.86S
RICE LAKE      CLOUDY    64  60  90 E5        29.88F
LADYSMITH      CLOUDY    62  60  93 E7        29.91S
EAU CLAIRE     RAIN      66  64  93 E7        29.84F
MENOMONIE      DRIZZLE   66  64  92 E7        29.85F
NEW RICHMOND   LGT RAIN  65  64  97 E9        29.82F
OSCEOLA        LGT RAIN  66  66  99 E12       29.84F
$$

WIZ003>005-009-010-017-018-211200-
NORTH CENTRAL WISCONSIN

CITY           SKY/WX    TMP DP  RH WIND       PRES   REMARKS
WOODRUFF       CLOUDY    62  59  91 SE3       29.96R
RHINELANDER    FOG       60  60 100 SE5       29.97R VSB 1/2
EAGLE RIVER    CLOUDY    60  60 100 SE3       29.96S
LAND O LAKES   MOCLDY    59  59 100 SE3       29.98R
PHILLIPS       CLOUDY    58  58  98 E3        29.93R
TOMAHAWK       FOG       56  55  97 E3        29.96R VSB 1/2
MEDFORD        CLOUDY    61  61  97 SE6       29.93R
MERRILL        CLOUDY    58  58 100 CALM      29.95R FOG
$$

WIZ029-030-035-036-043>047-211200-
CENTRAL WISCONSIN

CITY           SKY/WX    TMP DP  RH WIND       PRES   REMARKS
WAUSAU         PTCLDY    60  59  96 E5        29.93S
MOSINEE        MOCLDY    61  61 100 E5        29.95R FOG
MARSHFIELD     MOCLDY    63  62  97 E5        29.92R FOG
STEVENS POINT  MOCLDY    61  60  97 E3        29.93F FOG
WAUPACA        MOCLDY    64  63  94 CALM      29.94R FOG
WAUTOMA        CLOUDY    64  63  97 E5        29.93S
WISC RAPIDS    MOCLDY    64  62  93 SE3       29.93R
CAMP DOUGLAS   CLOUDY    64  64 100 E6        29.90R FOG
$$

WIZ011>013-019>022-031-037>040-048>050-211200-
NORTHEAST WISCONSIN

CITY           SKY/WX    TMP DP  RH WIND       PRES   REMARKS
ANTIGO         FOG       60  60 100 S3        29.97R VSB 1/2
STURGEON BAY   MOCLDY    61  57  88 CALM      29.96S VSB 1/2
GREEN BAY      CLOUDY    60  59  96 CALM      29.94S FOG
MANITOWOC      CLOUDY    63  62  97 CALM      29.94F
APPLETON       MOCLDY    64  63  94 E3        29.94F
CLINTONVILLE   FOG       57  55  94 CALM      29.93F VSB 1/4
OSHKOSH        MOCLDY    65  62  90 SE6       29.93S
$$

WIZ032>034-041-042-053>061-211200-
SOUTHWEST WISCONSIN

CITY           SKY/WX    TMP DP  RH WIND       PRES   REMARKS
LA CROSSE      CLOUDY    72  66  81 SE7       29.85R
SPARTA         CLOUDY    68  66  92 E3        29.89R
VIROQUA        PTSUNNY   66  66 100 SE6       29.90R
BOSCOBEL       CLOUDY    71  66  84 CALM      29.89R
PRAIRIE DU CHI CLOUDY    71  66  84 SE3       29.87R
PLATTEVILLE    CLOUDY    70  67  91 E7        29.92R
$$

WIZ056-057-062-063-064-067-068-211200-
SOUTH CENTRAL WISCONSIN

CITY           SKY/WX    TMP DP  RH WIND       PRES   REMARKS
BARABOO/DELLS  CLOUDY    65  63  93 E3        29.90R FOG
LONE ROCK      CLOUDY    72  67  84 E5        29.87F
WATERTOWN      MOCLDY    65  64  98 E7        29.91F
MADISON        CLOUDY    70  66  87 SE6       29.91F
MIDDLETON      FAIR      69  68  96 SE5       29.90F
MONROE         TSTM      68  66  94 W5        29.95R
JANESVILLE     LGT RAIN  70  66  88 CALM      29.93S
$$

WIZ051-052-058>065-066-070>072-211200-
SOUTHEAST WISCONSIN

CITY           SKY/WX    TMP DP  RH WIND       PRES   REMARKS
MILWAUKEE      MOCLDY    67  63  87 CALM      29.94S
WAUKESHA       CLOUDY    64  63  94 SE5       29.95F
MILWAUKEE/TIMM PTCLDY    64  61  88 CALM      29.95S
RACINE         PTCLDY    66  64  93 W3        29.95F
BURLINGTON     LGT RAIN  63  63  99 CALM      29.94S
KENOSHA        MOCLDY    65  64  97 CALM      29.94S
FOND DU LAC    PTCLDY    64  61  90 MISG      29.94S
SHEBOYGAN      FOG       59  58  96 CALM      29.94S VSB 1/4
WEST BEND      PTCLDY    61  59  94 CALM      29.94F FOG
JUNEAU         MOCLDY    65  39  38 SE5       29.93F
$$

LSZ147-162-211200-
LAKE SUPERIOR

STATION/POSITION TIME  TEMP    WIND        PRES    WAVE
                       AIR SEA DIR/SP/G            HT/PER
                 (UTC) (F)     (DEG/KT/KT) (MB)    (FT/S)
W MID LAKE BUOY  1050   57 57   90/  8/ 10 1014.3R   0
DEVILS ISLAND    1100   60      90/ 10/ 11 1014.1R
PORT WING        1000   59     160/  2/  3 1012.9
SAXON HARBOR     1040   56        CALM     1013.9R
$$

LMZ867-665-643>646-211200-
LAKE MICHIGAN

STATION/POSITION TIME  TEMP    WIND        PRES    WAVE
                       AIR SEA DIR/SP/G            HT/PER
                 (UTC) (F)     (DEG/KT/KT) (MB)    (FT/S)
N MID LAKE BUOY  1050   63 63   90/  2/  2 1014.1R   0
NORTHPORT PIER   1000   64      CALM  /  1 1014.2F
SISTER BAY       0911   65        CALM       N/A
KEWAUNEE LAKESHO 1100   61     300/  1/  2 1013.2R
SHEBOYGAN LAKESH 1100   66 65  120/  4/  4 1013.9F
ATWATER BUOY     1100   68     110/  4/  6 1014.9R
MILWAUKEE LAKESH 1100   68     100/  4/  5   N/A
S MID LAKE BUOY  1050   68 67  130/  2/  4 1014.0R   0
KENOSHA   LAKESH 1100   69      CALM  /  3 1013.5R
$$

TC  - TEMPERATURE IN CELSIUS
VSB - VISIBILITY IN STATUTE MILES
WCI - WIND CHILL INDEX
HX  - HEAT INDEX




USA.gov is the U.S. government's official web portal to all federal, state and local government web resources and services.